Location: Luxembourg
(49.6117°N, 6.1300°E)
Time: 14:23:57
(UTC+01:00)

Envisat - Pass Details

Date: 31 January 2019
Orbit: 764 x 766 km, 98.2° (Epoch: 16 February)

Event Time Altitude Azimuth Distance (km) Brightness Sun altitude
Rises 18:53:58 0° 158° (SSE) 3,221 6.1 -13.9°
Reaches altitude 10° 18:56:15 10° 156° (SSE) 2,299 5.3 -14.3°
Maximum altitude 19:01:18 73° 73° (ENE) 804 2.9 -15.1°
Drops below altitude 10° 19:06:23 10° 349° (N) 2,314 5.5 -15.9°
Sets 19:08:42 0° 348° (NNW) 3,245 6.3 -16.3°
